TimeEDT,TemperatureF,Dew PointF,Humidity,Sea Level PressureIn,VisibilityMPH,Wind Direction,Wind SpeedMPH,Gust SpeedMPH,PrecipitationIn,Events,Conditions,WindDirDegrees,DateUTC
12:53 AM,75.9,70.0,82,29.94,10.0,Calm,Calm,-,N/A,,Clear,0,2013-10-09 04:53:00
1:53 AM,77.0,70.0,79,29.93,10.0,WSW,3.5,-,N/A,,Clear,250,2013-10-09 05:53:00
2:53 AM,79.0,70.0,74,29.93,10.0,WNW,3.5,-,N/A,,Clear,290,2013-10-09 06:53:00
3:53 AM,75.9,72.0,87,29.92,10.0,NNE,6.9,-,N/A,,Scattered Clouds,30,2013-10-09 07:53:00
4:04 AM,75.2,71.6,89,29.92,10.0,NNE,6.9,-,N/A,,Mostly Cloudy,30,2013-10-09 08:04:00
4:28 AM,75.2,71.6,89,29.92,10.0,NE,6.9,-,N/A,,Partly Cloudy,50,2013-10-09 08:28:00
4:53 AM,75.0,72.0,90,29.92,10.0,NE,5.8,-,N/A,,Scattered Clouds,40,2013-10-09 08:53:00
5:53 AM,75.0,72.0,90,29.93,10.0,ENE,5.8,-,N/A,,Clear,60,2013-10-09 09:53:00
6:53 AM,75.0,72.0,90,29.95,10.0,East,5.8,-,N/A,,Clear,80,2013-10-09 10:53:00
7:53 AM,75.0,72.0,90,29.96,9.0,NE,6.9,-,N/A,,Mostly Cloudy,40,2013-10-09 11:53:00
8:53 AM,75.9,73.0,91,29.98,10.0,NE,6.9,-,N/A,,Clear,50,2013-10-09 12:53:00
9:53 AM,77.0,73.0,88,29.99,10.0,NE,11.5,-,N/A,,Partly Cloudy,40,2013-10-09 13:53:00
10:26 AM,78.8,73.4,83,30.00,10.0,NE,10.4,-,N/A,,Mostly Cloudy,50,2013-10-09 14:26:00
10:53 AM,80.1,73.0,79,30.00,10.0,NE,9.2,-,N/A,,Mostly Cloudy,50,2013-10-09 14:53:00
11:03 AM,78.8,71.6,78,30.00,10.0,NE,9.2,-,N/A,,Mostly Cloudy,40,2013-10-09 15:03:00
11:53 AM,82.0,73.0,74,30.01,10.0,Variable,6.9,-,N/A,,Mostly Cloudy,0,2013-10-09 15:53:00
12:53 PM,81.0,72.0,74,30.00,10.0,NNE,6.9,-,N/A,,Overcast,30,2013-10-09 16:53:00
1:53 PM,82.0,73.0,74,29.98,10.0,ENE,4.6,-,N/A,,Overcast,60,2013-10-09 17:53:00
2:53 PM,84.9,72.0,65,29.96,10.0,North,6.9,-,N/A,,Scattered Clouds,10,2013-10-09 18:53:00
3:53 PM,84.9,72.0,65,29.95,10.0,NW,8.1,-,N/A,,Scattered Clouds,320,2013-10-09 19:53:00
4:53 PM,84.0,73.0,69,29.95,10.0,WNW,13.8,-,N/A,,Scattered Clouds,290,2013-10-09 20:53:00
5:53 PM,82.9,72.0,69,29.95,10.0,NW,10.4,-,N/A,,Clear,320,2013-10-09 21:53:00
6:53 PM,82.0,72.0,71,29.95,10.0,NW,4.6,-,N/A,,Clear,320,2013-10-09 22:53:00
7:53 PM,80.1,72.0,76,29.96,10.0,NNW,5.8,-,N/A,,Clear,340,2013-10-09 23:53:00
8:53 PM,79.0,71.1,77,29.97,10.0,North,5.8,-,N/A,,Clear,350,2013-10-10 00:53:00
9:53 PM,78.1,71.1,79,29.99,10.0,North,5.8,-,N/A,,Clear,360,2013-10-10 01:53:00
10:53 PM,77.0,71.1,82,30.01,10.0,NNE,3.5,-,N/A,,Clear,20,2013-10-10 02:53:00
11:53 PM,75.9,71.1,85,30.00,10.0,NNE,5.8,-,N/A,,Clear,30,2013-10-10 03:53:00